TimeCDT,TemperatureF,Dew PointF,Humidity,Sea Level PressureIn,VisibilityMPH,Wind Direction,Wind SpeedMPH,Gust SpeedMPH,PrecipitationIn,Events,Conditions,WindDirDegrees,DateUTC
12:53 AM,48.9,43.0,80,30.15,10.0,ESE,3.5,-,N/A,,Clear,110,2013-10-10 05:53:00
1:53 AM,44.1,39.9,85,30.16,10.0,Calm,Calm,-,N/A,,Clear,0,2013-10-10 06:53:00
2:53 AM,39.9,37.9,93,30.16,10.0,Calm,Calm,-,N/A,,Clear,0,2013-10-10 07:53:00
3:27 AM,39.2,37.4,93,30.15,1.8,Calm,Calm,-,N/A,,Clear,0,2013-10-10 08:27:00
3:43 AM,37.4,37.4,100,30.15,0.8,Calm,Calm,-,N/A,,Mist,0,2013-10-10 08:43:00
3:53 AM,37.9,37.0,97,30.16,1.8,Calm,Calm,-,N/A,,Clear,0,2013-10-10 08:53:00
4:19 AM,39.2,39.2,100,30.15,0.8,Calm,Calm,-,N/A,,Clear,0,2013-10-10 09:19:00
4:27 AM,37.4,37.4,100,30.15,1.0,Calm,Calm,-,N/A,,Clear,0,2013-10-10 09:27:00
4:34 AM,37.4,37.4,100,30.15,5.0,Calm,Calm,-,N/A,,Clear,0,2013-10-10 09:34:00
4:46 AM,37.4,35.6,93,30.15,1.5,Calm,Calm,-,N/A,,Clear,0,2013-10-10 09:46:00
4:53 AM,39.0,37.9,96,30.17,0.5,Calm,Calm,-,N/A,Fog,Fog,0,2013-10-10 09:53:00
5:21 AM,39.2,37.4,93,30.15,2.0,Calm,Calm,-,N/A,,Clear,0,2013-10-10 10:21:00
5:28 AM,37.4,37.4,100,30.15,9.0,Calm,Calm,-,N/A,,Clear,0,2013-10-10 10:28:00
5:53 AM,39.9,39.0,97,30.17,9.0,Calm,Calm,-,N/A,,Clear,0,2013-10-10 10:53:00
6:53 AM,39.0,37.0,93,30.18,9.0,Calm,Calm,-,N/A,,Clear,0,2013-10-10 11:53:00
6:56 AM,39.2,37.4,93,30.16,1.5,Calm,Calm,-,N/A,,Clear,0,2013-10-10 11:56:00
7:03 AM,37.4,35.6,93,30.16,0.2,Calm,Calm,-,N/A,Fog,Fog,0,2013-10-10 12:03:00
7:10 AM,37.4,35.6,93,30.16,0.2,Calm,Calm,-,N/A,Fog,Fog,0,2013-10-10 12:10:00
7:15 AM,37.4,37.4,100,30.15,1.2,Calm,Calm,-,N/A,,Clear,0,2013-10-10 12:15:00
7:22 AM,37.4,37.4,100,30.15,9.0,Calm,Calm,-,N/A,,Clear,0,2013-10-10 12:22:00
7:53 AM,39.9,39.0,97,30.18,7.0,Calm,Calm,-,N/A,,Clear,0,2013-10-10 12:53:00
8:53 AM,50.0,45.0,83,30.17,10.0,Calm,Calm,-,N/A,,Clear,0,2013-10-10 13:53:00
9:53 AM,59.0,46.0,62,30.17,10.0,SSW,3.5,-,N/A,,Clear,200,2013-10-10 14:53:00
10:53 AM,63.0,44.1,50,30.15,10.0,South,6.9,-,N/A,,Clear,190,2013-10-10 15:53:00
11:53 AM,64.9,45.0,48,30.14,10.0,SSE,8.1,-,N/A,,Clear,160,2013-10-10 16:53:00
12:53 PM,66.9,43.0,42,30.12,10.0,South,9.2,-,N/A,,Clear,170,2013-10-10 17:53:00
1:53 PM,70.0,39.9,33,30.10,10.0,South,11.5,18.4,N/A,,Clear,190,2013-10-10 18:53:00
2:53 PM,69.1,42.1,38,30.10,10.0,South,11.5,19.6,N/A,,Clear,180,2013-10-10 19:53:00
3:53 PM,69.1,42.1,38,30.09,10.0,South,10.4,-,N/A,,Clear,190,2013-10-10 20:53:00
4:53 PM,68.0,39.9,36,30.08,10.0,South,9.2,-,N/A,,Clear,180,2013-10-10 21:53:00
5:53 PM,66.0,42.1,42,30.08,10.0,South,4.6,-,N/A,,Clear,170,2013-10-10 22:53:00
6:53 PM,61.0,43.0,52,30.09,10.0,SE,3.5,-,N/A,,Clear,140,2013-10-10 23:53:00
7:53 PM,55.9,43.0,62,30.09,10.0,SE,4.6,-,N/A,,Clear,140,2013-10-11 00:53:00
8:53 PM,55.9,44.1,64,30.08,10.0,SE,3.5,-,N/A,,Clear,140,2013-10-11 01:53:00
9:53 PM,50.0,43.0,77,30.08,10.0,ESE,4.6,-,N/A,,Clear,110,2013-10-11 02:53:00
10:53 PM,48.0,43.0,83,30.08,10.0,SE,4.6,-,N/A,,Clear,130,2013-10-11 03:53:00
11:53 PM,48.9,44.1,83,30.08,10.0,East,3.5,-,N/A,,Clear,100,2013-10-11 04:53:00